This demonstration page uses our WeatherBlox Daily Observations layout. Learn more.

Left ArrowRight Arrow

31.31129, -92.44514

Hourly Observations for August 7, 2018

Temp ( °F °C ) Dew Point ( °F °C ) Humidity (%) Winds ( mph kmh ) Pressure ( in mb ) Visibility ( mi km ) Precip ( " mm )
12:53 am 00:53 Clear 73 22.8 71 21.7 94 94 Calm 30.07 1018 9 14 0.00 0.00
1:53 am 01:53 Clear 73 22.8 71 21.7 94 94 Calm 30.06 1018 10 16 0.00 0.00
2:53 am 02:53 Clear 72 22.2 71 21.7 97 97 Calm 30.06 1018 9 14 0.00 0.00
3:53 am 03:53 Clear 73 22.8 72 22.2 96 96 Calm 30.07 1018 8 13 0.00 0.00
4:53 am 04:53 Clear 73 22.8 72 22.2 96 96 Calm 30.07 1018 10 16 0.00 0.00
5:53 am 05:53 Clear 74 23.3 72 22.2 94 94 Calm 30.06 1018 10 16 0.00 0.00
6:53 am 06:53 Mostly Sunny 74 23.3 72 22.2 94 94 Calm 30.08 1019 9 14 0.00 0.00
7:10 am 07:10 Mostly Cloudy 75 23.9 72 22.2 90 90 Calm 30.09 1019 10 16 0.00 0.00
7:36 am 07:36 Partly Cloudy 76 24.4 73 22.8 91 91 ESE 6 9 30.09 1019 10 16 0.00 0.00
7:53 am 07:53 Sunny 77 25 73 22.8 88 88 ESE 6 9 30.10 1019 10 16 0.00 0.00
8:53 am 08:53 Sunny 80 26.7 75 23.9 85 85 Calm 30.11 1020 10 16 0.00 0.00
9:53 am 09:53 Sunny 84 28.9 76 24.4 77 77 SSW 3 6 30.11 1020 10 16 0.00 0.00
10:53 am 10:53 Mostly Sunny 85 29.4 74 23.3 70 70 WNW 3 6 30.10 1019 10 16 0.00 0.00
11:39 am 11:39 Sunny with Nearby Thunderstorms 87 30.6 73 22.8 63 63 VRB 5 7 30.09 1019 10 16 0.00 0.00
11:50 am 11:50 Partly Cloudy with Thunderstorms 86 30 73 23 66 66 S 3 6 30.09 1019 10 16 0.00 0.00
11:53 am 11:53 Partly Cloudy with Thunderstorms 86 30 73 22.8 65 65 S 3 6 30.09 1019 10 16 0.00 0.00
12:05 pm 12:05 Partly Cloudy with Nearby Thunderstorms 86 30 74 23.3 67 67 SSE 3 6 30.06 1018 10 16 0.00 0.00
12:53 pm 12:53 Partly Cloudy with Thunderstorms 81 27.2 70 21.1 69 69 SSE 13 20 30.08 1019 10 16 0.00 0.03
1:26 pm 13:26 Partly Cloudy with Nearby Thunderstorms 79 26.1 70 21.1 74 74 SSW 13 20 30.09 1019 10 16 0.00 0.03
1:35 pm 13:35 Mostly Sunny 79 26.1 71 21.7 77 77 S 8 13 30.06 1018 10 16 0.00 0.03
1:53 pm 13:53 Sunny 79 26.1 71 21.7 77 77 S 8 13 30.06 1018 10 16 0.00 0.03
2:24 pm 14:24 Sunny with Nearby Thunderstorms 81 27.2 71 21.7 72 72 S 6 9 30.06 1018 10 16 0.00 0.03
2:39 pm 14:39 Sunny 80 26.7 70 21.1 71 71 SE 9 15 30.06 1018 10 16 0.00 0.03
2:53 pm 14:53 Partly Cloudy with Light Rain 79 26.1 69 20.6 72 72 SSE 8 13 30.05 1018 10 16 0.00 0.03
3:53 pm 15:53 Mostly Sunny 79 26.1 70 21.1 74 74 SSW 8 13 30.04 1017 10 16 0.00 0.03
4:53 pm 16:53 Sunny 78 25.6 71 21.7 79 79 SW 7 11 30.03 1017 10 16 0.00 0.03
5:53 pm 17:53 Sunny 79 26.1 73 22.8 82 82 WSW 6 9 30.03 1017 10 16 0.00 0.00
6:53 pm 18:53 Sunny 79 26.1 73 22.8 82 82 Calm 30.01 1016 10 16 0.00 0.00
7:53 pm 19:53 Sunny 77 25 72 22.2 85 85 SE 7 11 29.98 1015 10 16 0.00 0.00
8:53 pm 20:53 Clear 75 23.9 73 22.8 94 94 S 5 7 30.02 1017 10 16 0.00 0.00
9:53 pm 21:53 Clear 74 23.3 73 22.8 97 97 SSE 7 11 30.02 1017 10 16 0.00 0.00
10:53 pm 22:53 Clear 74 23.3 72 22.2 94 94 S 3 6 30.03 1017 9 14 0.00 0.00
11:53 pm 23:53 Clear 73 22.8 72 22.2 96 96 SE 3 6 30.04 1017 9 14 0.00 0.00

Powered by AerisWeather